period_start,C,m1,H,J0,J1,J2,J3,J4,J5,JA,JB,JC,JD,JJ,JK,JN,#
2016-05-23 00:03:49,0.02,0.63,0.00,25.69,30.11,33.35,14.21,49.06,1006.36,2022.99,3235.49,2955.99,3317.94,599.61,584.32,12.02,0000 0000 0000 0000 000000
2016-05-23 00:08:50,0.04,0.63,0.00,25.67,30.06,33.33,14.21,48.96,1006.36,2023.01,3234.80,2955.59,3317.12,599.73,584.54,12.07,0000 0000 0000 0000 000000
2016-05-23 00:13:51,0.08,0.64,0.00,25.65,30.03,33.27,14.29,49.08,1006.36,2023.36,3234.02,2955.05,3316.72,600.00,584.85,12.12,0000 0000 0000 0000 000000
2016-05-23 00:18:53,0.05,0.64,0.00,25.66,29.99,33.23,14.23,49.16,1006.36,2023.89,3233.17,2954.97,3316.02,600.09,584.81,12.17,0000 0000 0000 0000 000000
2016-05-23 00:23:54,0.06,0.64,0.00,25.67,29.96,33.16,14.24,49.17,1006.36,2023.98,3232.44,2954.38,3315.39,599.50,584.22,12.22,0000 0000 0000 0000 000000
2016-05-23 00:28:55,0.02,0.65,0.00,25.64,29.92,33.06,14.32,49.02,1006.36,2023.99,3231.46,2953.99,3314.74,600.03,584.81,12.27,0000 0000 0000 0000 000000
2016-05-23 00:33:56,0.04,0.65,0.00,25.65,29.89,33.03,14.23,49.05,1006.36,2024.01,3230.63,2953.53,3314.01,599.80,584.60,12.32,0000 0000 0000 0000 000000
2016-05-23 00:38:57,0.03,0.65,0.00,25.66,29.86,32.99,14.32,49.26,1006.36,2024.09,3229.88,2953.02,3313.20,599.90,584.63,12.37,0000 0000 0000 0000 000000
2016-05-23 00:43:58,0.05,0.65,0.00,25.67,29.84,32.89,14.27,49.09,1006.36,2024.34,3229.06,2952.87,3312.78,599.78,584.53,12.42,0000 0000 0000 0000 000000
2016-05-23 00:49:00,0.09,0.66,0.00,25.65,29.81,32.81,14.25,49.27,1006.36,2024.82,3228.43,2952.12,3312.04,599.72,584.39,12.47,0000 0000 0000 0000 000000
2016-05-23 00:54:01,0.03,0.66,0.00,25.67,29.79,32.81,14.22,49.02,1006.37,2024.96,3227.68,2951.98,3311.36,599.65,584.53,12.52,0000 0000 0000 0000 000000
2016-05-23 00:59:02,0.04,0.66,0.00,25.67,29.77,32.78,14.22,49.00,1006.38,2024.97,3226.89,2951.27,3310.63,599.98,584.86,12.57,0000 0000 0000 0000 000000
2016-05-23 01:04:03,0.02,0.66,0.00,25.65,29.76,32.74,14.29,49.27,1006.49,2024.99,3225.99,2950.99,3309.94,600.21,585.06,12.62,0000 0000 0000 0000 000000
2016-05-23 01:09:04,0.05,0.67,0.00,25.66,29.75,32.72,14.21,48.98,1006.71,2024.99,3225.14,2950.45,3309.13,599.54,584.52,12.67,0000 0000 0000 0000 000000
2016-05-23 01:14:05,0.03,0.67,0.00,25.68,29.73,32.63,14.22,49.18,1006.78,2025.00,3224.58,2950.00,3308.61,599.85,584.92,12.72,0000 0000 0000 0000 000000
2016-05-23 01:19:07,0.04,0.67,0.00,25.68,29.72,32.65,14.26,49.17,1006.68,2025.00,3223.67,2949.46,3307.89,599.53,584.50,12.77,0000 0000 0000 0000 000000
2016-05-23 01:24:08,0.03,0.67,0.00,25.66,29.70,32.64,14.31,49.33,1006.58,2025.02,3222.69,2949.00,3306.98,600.06,585.01,12.82,0000 0000 0000 0000 000000
2016-05-23 01:29:09,0.05,0.67,0.00,25.65,29.70,32.63,14.25,49.22,1006.70,2025.07,3221.88,2948.38,3306.18,599.75,584.74,12.87,0000 0000 0000 0000 000000
2016-05-23 01:34:10,0.03,0.68,0.00,25.68,29.69,32.62,14.29,49.28,1006.83,2025.14,3221.08,2947.99,3305.55,599.88,584.85,12.92,0000 0000 0000 0000 000000
2016-05-23 01:39:12,0.05,0.68,0.00,25.67,29.67,32.59,14.29,49.23,1006.85,2025.22,3220.24,2947.28,3304.82,600.16,585.12,12.97,0000 0000 0000 0000 000000
2016-05-23 01:44:13,0.05,0.68,0.00,25.66,29.67,32.57,14.27,49.08,1006.85,2025.55,3219.64,2946.96,3304.09,600.24,585.29,13.02,0000 0000 0000 0000 000000
2016-05-23 01:49:14,0.07,0.68,0.00,25.69,29.67,32.56,14.25,49.08,1006.85,2025.73,3218.87,2946.26,3303.28,599.92,585.02,13.07,0000 0000 0000 0000 000000
2016-05-23 01:54:16,0.04,0.69,0.00,25.71,29.67,32.55,14.36,49.30,1006.85,2025.88,3218.03,2945.95,3302.63,600.67,585.54,13.12,0000 0000 0000 0000 000000
2016-05-23 01:59:17,0.05,0.69,0.00,25.71,29.67,32.54,14.30,49.30,1006.85,2025.92,3217.12,2945.15,3301.86,599.85,584.82,13.17,0000 0000 0000 0000 000000
2016-05-23 02:04:19,0.03,0.69,0.00,25.72,29.67,32.53,14.24,49.22,1006.85,2025.92,3216.15,2944.88,3301.00,600.04,584.93,13.22,0000 0000 0000 0000 000000
2016-05-23 02:09:19,0.05,0.69,0.00,25.73,29.66,32.52,14.22,49.10,1006.85,2025.94,3215.16,2944.08,3300.05,599.76,584.73,13.27,0000 0000 0000 0000 000000
2016-05-23 02:14:20,0.04,0.70,0.00,25.72,29.66,32.54,14.27,48.99,1006.86,2025.95,3214.32,2943.82,3299.19,600.10,585.04,13.32,0000 0000 0000 0000 000000
2016-05-23 02:19:22,0.05,0.70,0.00,25.71,29.65,32.57,14.26,49.05,1006.85,2025.98,3213.52,2943.08,3298.50,600.09,585.00,13.37,0000 0000 0000 0000 000000
2016-05-23 02:24:23,0.03,0.70,0.00,25.72,29.65,32.57,14.29,49.22,1006.86,2025.97,3212.73,2942.79,3297.83,600.16,585.08,13.42,0000 0000 0000 0000 000000
2016-05-23 02:29:24,0.04,0.70,0.00,25.75,29.65,32.54,14.30,49.22,1006.86,2025.98,3211.98,2942.05,3297.04,600.06,584.95,13.47,0000 0000 0000 0000 000000
2016-05-23 02:34:26,0.05,0.71,0.00,25.75,29.65,32.49,14.25,49.15,1006.87,2025.98,3211.00,2941.48,3296.23,599.87,584.83,13.52,0000 0000 0000 0000 000000
2016-05-23 02:39:27,0.03,0.71,0.00,25.74,29.65,32.58,14.24,49.03,1006.87,2025.99,3210.09,2941.00,3295.42,599.91,584.83,13.57,0000 0000 0000 0000 000000
2016-05-23 02:44:29,0.05,0.71,0.00,25.73,29.63,32.67,14.28,49.13,1006.86,2025.98,3209.18,2940.49,3294.64,600.01,584.93,13.62,0000 0000 0000 0000 000000
2016-05-23 02:49:29,0.03,0.71,0.00,25.76,29.62,32.57,14.24,48.99,1006.90,2025.99,3208.39,2940.01,3293.98,599.93,584.80,13.67,0000 0000 0000 0000 000000
2016-05-23 02:54:31,0.04,0.71,0.00,25.77,29.62,32.53,14.25,49.00,1006.99,2025.99,3207.73,2939.52,3293.15,599.99,584.97,13.72,0000 0000 0000 0000 000000
2016-05-23 02:59:32,0.03,0.72,0.00,25.73,29.62,32.71,14.28,49.12,1007.03,2025.99,3206.94,2939.01,3292.46,599.88,584.91,13.77,0000 0000 0000 0000 000000
2016-05-23 03:04:33,0.04,0.72,0.00,25.75,29.60,32.75,14.29,49.08,1007.08,2026.00,3206.00,2938.60,3291.80,600.09,585.12,13.83,0000 0000 0000 0000 000000
2016-05-23 03:09:35,0.03,0.72,0.00,25.77,29.60,32.65,14.24,49.13,1007.22,2026.00,3205.09,2938.01,3290.95,599.73,584.75,13.88,0000 0000 0000 0000 000000
2016-05-23 03:14:36,0.05,0.72,0.00,25.77,29.60,32.59,14.22,49.27,1007.32,2026.00,3204.12,2937.45,3290.05,599.43,584.47,13.93,0000 0000 0000 0000 000000
2016-05-23 03:19:38,0.03,0.72,0.00,25.76,29.59,32.73,14.29,49.27,1007.32,2026.00,3203.30,2936.95,3289.24,600.21,585.40,13.98,0000 0000 0000 0000 000000
2016-05-23 03:24:39,0.05,0.73,0.00,25.75,29.57,32.77,14.29,49.38,1007.33,2026.00,3202.46,2936.23,3288.51,599.85,585.06,14.03,0000 0000 0000 0000 000000
2016-05-23 03:29:41,0.02,0.73,0.00,25.76,29.57,32.76,14.30,49.16,1007.34,2026.03,3201.73,2935.96,3287.89,600.23,585.25,14.08,0000 0000 0000 0000 000000
2016-05-23 03:34:41,0.05,0.73,0.00,25.78,29.57,32.64,14.24,49.22,1007.34,2026.03,3200.83,2935.20,3287.06,599.91,585.09,14.13,0000 0000 0000 0000 000000
2016-05-23 03:39:43,0.03,0.73,0.00,25.76,29.57,32.64,14.26,49.43,1007.34,2026.02,3200.00,2934.75,3286.28,600.08,585.22,14.18,0000 0000 0000 0000 000000
2016-05-23 03:44:44,0.05,0.74,0.00,25.72,29.56,32.72,14.15,49.36,1007.36,2026.05,3199.10,2934.03,3285.47,599.40,584.65,14.23,0000 0000 0000 0000 000000
2016-05-23 03:49:46,0.05,0.74,0.00,25.74,29.55,32.71,14.27,49.33,1007.35,2026.05,3198.18,2933.51,3284.60,599.58,584.81,14.28,0000 0000 0000 0000 000000
2016-05-23 03:54:47,0.02,0.74,0.00,25.76,29.55,32.68,14.26,49.23,1007.36,2026.06,3197.23,2933.00,3283.84,600.01,585.17,14.33,0000 0000 0000 0000 000000
2016-05-23 03:59:48,0.06,0.74,0.00,25.71,29.55,32.67,14.20,49.25,1007.38,2026.13,3196.35,2932.36,3283.04,599.69,585.02,14.38,0000 0000 0000 0000 000000
2016-05-23 04:04:49,0.06,0.75,0.00,25.66,29.55,32.64,14.27,49.32,1007.39,2026.46,3195.55,2931.99,3282.26,599.73,585.12,14.43,0000 0000 0000 0000 000000
2016-05-23 04:09:50,0.06,0.75,0.00,25.62,29.53,32.62,14.29,49.35,1007.38,2026.49,3194.51,2931.32,3281.35,599.92,585.22,14.48,0000 0000 0000 0000 000000
2016-05-23 04:14:51,0.05,0.75,0.00,25.61,29.52,32.61,14.37,49.42,1007.35,2026.62,3193.66,2930.92,3280.55,599.67,585.18,14.53,0000 0000 0000 0000 000000
2016-05-23 04:19:53,0.05,0.75,0.00,25.68,29.52,32.60,14.19,49.38,1007.37,2026.65,3192.77,2930.10,3279.72,599.91,585.24,14.58,0000 0000 0000 0000 000000
2016-05-23 04:24:54,0.04,0.76,0.00,25.71,29.50,32.57,14.31,49.30,1007.44,2026.77,3191.81,2929.80,3278.85,600.22,585.52,14.63,0000 0000 0000 0000 000000
2016-05-23 04:29:55,0.05,0.76,0.00,25.70,29.50,32.57,14.20,49.22,1007.49,2026.89,3190.90,2929.05,3278.02,599.72,584.95,14.68,0000 0000 0000 0000 000000
2016-05-23 04:34:56,0.04,0.76,0.00,25.66,29.50,32.56,14.27,49.48,1007.63,2026.95,3190.00,2928.74,3277.13,599.97,585.52,14.73,0000 0000 0000 0000 000000
2016-05-23 04:39:58,0.04,0.76,0.00,25.61,29.48,32.54,14.27,49.28,1007.75,2026.97,3189.03,2928.03,3276.28,599.91,585.59,14.78,0000 0000 0000 0000 000000
2016-05-23 04:44:59,0.05,0.77,0.00,25.60,29.47,32.52,14.26,49.32,1007.82,2026.95,3188.08,2927.54,3275.38,599.83,585.63,14.83,0000 0000 0000 0000 000000
2016-05-23 04:50:00,0.03,0.77,0.00,25.63,29.46,32.50,14.24,49.25,1007.83,2026.96,3187.13,2927.01,3274.57,600.07,585.68,14.88,0000 0000 0000 0000 000000
2016-05-23 04:55:02,0.05,0.77,0.00,25.67,29.45,32.48,14.24,49.38,1007.83,2026.98,3186.27,2926.45,3273.93,599.79,585.35,14.93,0000 0000 0000 0000 000000
2016-05-23 05:00:03,0.03,0.77,0.00,25.64,29.43,32.47,14.23,49.46,1007.83,2026.98,3185.66,2926.01,3273.14,599.78,585.44,14.98,0000 0000 0000 0000 000000
2016-05-23 05:05:04,0.04,0.77,0.00,25.60,29.42,32.46,14.29,49.29,1007.83,2026.99,3184.69,2925.64,3272.43,600.05,585.81,15.03,0000 0000 0000 0000 000000
2016-05-23 05:10:06,0.02,0.78,0.00,25.54,29.40,32.43,14.23,49.40,1007.83,2026.99,3183.97,2925.04,3271.81,599.79,585.62,15.08,0000 0000 0000 0000 000000
2016-05-23 05:15:07,0.03,0.78,0.00,25.47,29.38,32.41,14.29,49.31,1007.83,2026.99,3183.15,2924.88,3271.05,600.05,586.06,15.13,0000 0000 0000 0000 000000
2016-05-23 05:20:08,0.04,0.78,0.00,25.44,29.36,32.37,14.31,49.27,1007.84,2026.99,3182.66,2924.28,3270.70,599.93,586.13,15.18,0000 0000 0000 0000 000000
2016-05-23 05:25:10,0.01,0.78,0.00,25.46,29.33,32.31,14.29,49.21,1007.84,2026.99,3181.96,2923.99,3270.01,599.67,585.73,15.23,0000 0000 0000 0000 000000
2016-05-23 05:30:11,0.04,0.78,0.00,25.55,29.30,32.33,14.23,49.24,1007.87,2027.09,3181.19,2923.80,3269.53,599.54,585.42,15.28,0000 0000 0000 0000 000000
2016-05-23 05:35:12,0.04,0.78,0.00,25.65,29.29,32.23,14.27,49.40,1007.85,2027.09,3180.55,2923.05,3268.89,600.54,586.18,15.33,0000 0000 0000 0000 000000
2016-05-23 05:40:14,0.06,0.79,0.00,25.77,29.27,31.94,14.22,49.22,1007.85,2027.24,3179.70,2922.71,3268.07,599.77,585.22,15.38,0000 0000 0000 0000 000000
2016-05-23 05:45:15,0.05,0.79,0.00,25.89,29.27,31.87,14.24,49.22,1007.85,2027.44,3179.02,2922.03,3267.49,600.24,585.48,15.43,0000 0000 0000 0000 000000
2016-05-23 05:50:16,0.02,0.79,0.00,26.00,29.29,31.91,14.24,49.36,1007.88,2027.28,3178.25,2921.43,3266.65,599.87,584.77,15.48,0000 0000 0000 0000 000000
2016-05-23 05:55:17,0.03,0.79,0.00,26.16,29.31,31.98,14.21,49.17,1008.09,2027.08,3177.44,2920.69,3265.92,600.23,585.07,15.53,0000 0000 0000 0000 000000
2016-05-23 06:00:19,0.04,0.80,0.00,26.22,29.34,32.06,14.20,49.42,1008.28,2027.01,3176.47,2919.94,3264.95,600.10,584.97,15.58,0000 0000 0000 0000 000000
2016-05-23 06:05:20,0.06,0.80,0.00,26.18,29.38,32.12,14.15,49.25,1008.31,2027.00,3175.15,2919.08,3263.91,599.72,584.64,15.63,0000 0000 0000 0000 000000
2016-05-23 06:10:21,0.05,0.80,0.00,26.14,29.41,32.16,14.25,49.21,1008.33,2027.00,3174.06,2918.17,3263.03,600.28,585.30,15.68,0000 0000 0000 0000 000000
2016-05-23 06:15:22,0.05,0.80,0.00,26.11,29.45,32.25,14.22,49.27,1008.47,2026.99,3173.01,2917.48,3262.13,599.83,584.92,15.73,0000 0000 0000 0000 000000
2016-05-23 06:20:23,0.04,0.81,0.00,26.08,29.48,32.31,14.26,49.17,1008.75,2026.98,3171.94,2916.94,3261.25,600.37,585.75,15.78,0000 0000 0000 0000 000000
2016-05-23 06:25:24,0.05,0.81,0.00,26.05,29.51,32.36,14.23,49.11,1008.79,2026.95,3170.95,2916.10,3260.25,600.10,585.47,15.83,0000 0000 0000 0000 000000
2016-05-23 06:30:26,0.04,0.81,0.00,26.03,29.52,32.39,14.26,49.11,1008.80,2026.87,3169.97,2915.43,3259.46,600.22,585.68,15.88,0000 0000 0000 0000 000000
2016-05-23 06:35:28,0.03,0.81,0.00,26.03,29.55,32.41,14.36,49.34,1008.80,2026.70,3168.94,2914.80,3258.56,600.49,585.90,15.93,0000 0000 0000 0000 000000
2016-05-23 06:40:29,0.03,0.82,0.00,26.01,29.56,32.44,14.27,49.35,1008.80,2026.49,3167.82,2914.05,3257.57,599.92,585.48,15.98,0000 0000 0000 0000 000000
2016-05-23 06:45:30,0.03,0.82,0.00,25.99,29.57,32.46,14.28,49.33,1008.80,2026.14,3166.61,2913.27,3256.56,600.10,585.66,16.03,0000 0000 0000 0000 000000
2016-05-23 06:50:31,0.04,0.82,0.00,25.96,29.58,32.45,14.28,49.33,1008.80,2026.04,3165.52,2912.63,3255.73,600.08,585.69,16.08,0000 0000 0000 0000 000000
2016-05-23 06:55:33,0.03,0.82,0.00,25.94,29.60,32.45,14.23,49.35,1008.82,2026.03,3164.67,2912.01,3254.93,599.63,585.39,16.13,0000 0000 0000 0000 000000
2016-05-23 07:00:34,0.05,0.82,0.00,25.92,29.60,32.44,14.23,49.37,1008.82,2026.03,3163.66,2911.46,3253.98,600.27,585.97,16.19,0000 0000 0000 0000 000000
2016-05-23 07:05:36,0.05,0.83,0.00,25.92,29.60,32.43,14.26,49.27,1008.82,2026.01,3162.41,2910.72,3252.99,599.99,585.68,16.24,0000 0000 0000 0000 000000
2016-05-23 07:10:37,0.04,0.83,0.00,25.92,29.60,32.40,14.27,49.16,1008.94,2026.01,3161.38,2910.02,3252.05,599.92,585.65,16.29,0000 0000 0000 0000 000000
2016-05-23 07:15:38,0.05,0.83,0.00,25.92,29.60,32.39,14.28,49.15,1009.12,2026.01,3160.38,2909.42,3251.21,599.81,585.75,16.34,0000 0000 0000 0000 000000
2016-05-23 07:20:39,0.03,0.83,0.00,25.92,29.60,32.39,14.26,49.28,1009.24,2026.01,3159.42,2908.90,3250.23,599.88,585.86,16.39,0000 0000 0000 0000 000000
2016-05-23 07:25:41,0.06,0.84,0.00,25.92,29.60,32.40,14.23,49.40,1009.29,2026.01,3158.24,2908.09,3249.29,600.04,585.99,16.44,0000 0000 0000 0000 000000
2016-05-23 07:30:42,0.05,0.84,0.00,25.91,29.60,32.39,14.28,49.30,1009.29,2026.01,3157.13,2907.52,3248.25,600.07,586.06,16.49,0000 0000 0000 0000 000000
2016-05-23 07:35:44,0.04,0.84,0.00,25.91,29.60,32.37,14.33,49.38,1009.30,2026.00,3156.21,2906.91,3247.45,600.21,585.95,16.54,0000 0000 0000 0000 000000
2016-05-23 07:40:45,0.05,0.85,0.00,25.91,29.60,32.37,14.32,49.27,1009.30,2026.00,3155.10,2906.11,3246.40,600.19,586.18,16.59,0000 0000 0000 0000 000000
2016-05-23 07:45:46,0.03,0.85,0.00,25.94,29.62,32.32,14.21,49.23,1009.33,2026.00,3154.23,2905.75,3245.69,599.89,585.89,16.64,0000 0000 0000 0000 000000
2016-05-23 07:50:47,0.04,0.85,0.00,26.01,29.62,32.29,14.24,49.19,1009.33,2026.00,3153.29,2905.01,3244.80,599.81,585.61,16.69,0000 0000 0000 0000 000000
2016-05-23 07:55:49,0.06,0.85,0.00,26.01,29.62,32.31,14.32,49.45,1009.45,2026.00,3152.26,2904.25,3243.67,600.54,586.57,16.74,0000 0000 0000 0000 000000
2016-05-23 08:00:50,0.04,0.85,0.00,26.01,29.64,32.36,14.24,49.24,1009.53,2026.00,3151.17,2903.82,3242.69,599.96,585.89,16.79,0000 0000 0000 0000 000000
2016-05-23 08:05:51,0.04,0.86,0.00,26.02,29.65,32.39,14.29,49.24,1009.69,2026.00,3150.05,2903.04,3241.87,599.96,585.89,16.84,0000 0000 0000 0000 000000
2016-05-23 08:10:52,0.08,0.86,0.00,26.02,29.65,32.43,14.22,49.19,1009.77,2026.00,3148.71,2902.22,3240.69,600.22,586.27,16.89,0000 0000 0000 0000 000000
2016-05-23 08:15:53,0.06,0.86,0.00,26.00,29.66,32.46,14.36,49.38,1009.78,2025.99,3147.28,2901.39,3239.54,600.05,586.14,16.94,0000 0000 0000 0000 000000
2016-05-23 08:20:55,0.04,0.87,0.00,26.00,29.67,32.48,14.26,49.39,1009.79,2025.99,3146.12,2900.84,3238.55,600.02,586.14,16.99,0000 0000 0000 0000 000000
2016-05-23 08:25:56,0.11,0.87,0.00,26.00,29.67,32.49,14.32,49.42,1009.79,2025.99,3144.20,2899.65,3237.10,600.16,586.17,17.04,0000 0000 0000 0000 000000
2016-05-23 08:30:57,0.24,0.88,0.00,25.97,29.67,32.51,14.18,49.41,1009.79,2025.99,3138.98,2896.53,3233.40,599.62,585.85,17.09,0000 0000 0000 0000 000000
2016-05-23 08:35:59,0.06,0.89,0.00,25.96,29.67,32.49,14.29,49.28,1009.79,2025.99,3137.26,2895.42,3231.95,600.16,586.29,17.14,0000 0000 0000 0000 000000
2016-05-23 08:41:00,0.03,0.89,0.00,25.95,29.67,32.48,14.34,49.22,1009.80,2025.98,3136.33,2894.90,3231.04,600.33,586.50,17.19,0000 0000 0000 0000 000000
2016-05-23 08:46:01,0.05,0.89,0.00,25.95,29.67,32.47,14.23,49.20,1009.86,2025.98,3135.38,2894.08,3230.15,600.20,586.23,17.24,0000 0000 0000 0000 000000
2016-05-23 08:51:03,0.05,0.89,0.00,25.95,29.67,32.47,14.28,49.27,1010.14,2025.99,3134.40,2893.67,3229.14,600.04,586.38,17.29,0000 0000 0000 0000 000000
2016-05-23 08:56:04,0.04,0.90,0.00,25.92,29.65,32.47,14.28,49.36,1010.24,2025.99,3133.39,2893.01,3228.21,600.41,586.93,17.34,0000 0000 0000 0000 000000
2016-05-23 09:01:05,0.05,0.90,0.00,25.91,29.65,32.46,14.27,49.26,1010.24,2025.98,3132.40,2892.37,3227.37,600.40,586.80,17.39,0000 0000 0000 0000 000000
2016-05-23 09:06:07,0.04,0.90,0.00,25.90,29.65,32.45,14.36,49.39,1010.25,2025.98,3131.42,2891.91,3226.42,600.46,587.01,17.44,0000 0000 0000 0000 000000
2016-05-23 09:11:08,0.05,0.90,0.00,25.90,29.63,32.44,14.31,49.17,1010.27,2025.99,3130.54,2891.13,3225.64,600.30,586.86,17.49,0000 0000 0000 0000 000000
2016-05-23 09:16:09,0.03,0.91,0.00,25.89,29.62,32.43,14.28,49.35,1010.27,2025.99,3129.62,2890.92,3224.87,600.13,586.76,17.54,0000 0000 0000 0000 000000
2016-05-23 09:21:11,0.04,0.91,0.00,25.88,29.62,32.44,14.20,49.40,1010.27,2025.99,3128.87,2890.16,3224.04,599.44,585.97,17.59,0000 0000 0000 0000 000000
2016-05-23 09:26:12,0.03,0.91,0.00,25.87,29.60,32.42,14.24,49.17,1010.28,2025.99,3127.99,2889.96,3223.22,600.20,586.76,17.64,0000 0000 0000 0000 000000
2016-05-23 09:31:13,0.05,0.91,0.00,25.87,29.60,32.39,14.30,49.35,1010.29,2025.99,3127.12,2889.25,3222.56,599.90,586.55,17.69,0000 0000 0000 0000 000000
2016-05-23 09:36:14,0.03,0.92,0.00,25.85,29.59,32.36,14.32,49.24,1010.31,2025.99,3126.20,2888.93,3221.67,600.32,587.06,17.74,0000 0000 0000 0000 000000
2016-05-23 09:41:16,0.05,0.92,0.00,25.85,29.57,32.38,14.27,49.18,1010.30,2025.99,3125.23,2888.11,3220.82,599.79,586.41,17.79,0000 0000 0000 0000 000000
2016-05-23 09:46:17,0.03,0.92,0.00,25.85,29.57,32.36,14.26,49.02,1010.31,2025.99,3124.30,2887.90,3219.99,599.88,586.50,17.84,0000 0000 0000 0000 000000
2016-05-23 09:51:18,0.05,0.92,0.00,25.84,29.55,32.35,14.30,49.33,1010.32,2025.99,3123.58,2887.10,3219.15,599.99,586.72,17.89,0000 0000 0000 0000 000000
2016-05-23 09:56:20,0.03,0.92,0.00,25.82,29.55,32.31,14.32,49.36,1010.33,2025.99,3122.74,2886.91,3218.44,600.63,587.25,17.94,0000 0000 0000 0000 000000
2016-05-23 10:01:21,0.04,0.93,0.00,25.82,29.53,32.31,14.30,49.05,1010.37,2025.99,3121.88,2886.11,3217.68,599.65,586.48,17.99,0000 0000 0000 0000 000000
2016-05-23 10:06:23,0.02,0.93,0.00,25.80,29.52,32.26,14.32,49.23,1010.40,2026.00,3120.99,2885.97,3216.90,600.30,587.18,18.04,0000 0000 0000 0000 000000
2016-05-23 10:11:24,0.05,0.93,0.00,25.79,29.50,32.23,14.26,49.28,1010.54,2026.00,3120.10,2885.30,3216.06,599.73,586.62,18.09,0000 0000 0000 0000 000000
2016-05-23 10:16:25,0.03,0.93,0.00,25.78,29.50,32.21,14.29,49.44,1010.74,2026.01,3119.40,2885.00,3215.30,600.20,587.18,18.14,0000 0000 0000 0000 000000
2016-05-23 10:21:26,0.04,0.93,0.00,25.80,29.48,32.18,14.25,49.40,1010.76,2026.02,3118.63,2884.62,3214.58,600.05,587.12,18.19,0000 0000 0000 0000 000000
2016-05-23 10:26:27,0.03,0.94,0.00,25.80,29.47,32.18,14.29,49.43,1010.77,2026.05,3117.90,2884.02,3213.87,600.01,587.13,18.24,0000 0000 0000 0000 000000
2016-05-23 10:31:28,0.04,0.94,0.00,25.82,29.47,32.19,14.27,49.38,1010.79,2026.13,3117.05,2883.89,3213.06,599.87,586.96,18.29,0000 0000 0000 0000 000000
2016-05-23 10:36:30,0.04,0.94,0.00,25.82,29.47,32.23,14.30,49.41,1010.87,2026.16,3116.24,2883.13,3212.30,600.30,587.17,18.34,0000 0000 0000 0000 000000
2016-05-23 10:41:31,0.03,0.94,0.00,25.85,29.47,32.26,14.25,49.40,1011.15,2026.22,3115.54,2882.95,3211.59,599.90,587.25,18.39,0000 0000 0000 0000 000000
2016-05-23 10:46:32,0.05,0.95,0.00,25.87,29.47,32.26,14.32,49.44,1011.24,2026.25,3114.81,2882.24,3210.84,600.04,587.24,18.44,0000 0000 0000 0000 000000
2016-05-23 10:51:33,0.03,0.95,0.00,25.87,29.47,32.30,14.31,49.38,1011.24,2026.26,3113.98,2881.97,3209.99,599.94,587.08,18.49,0000 0000 0000 0000 000000
2016-05-23 10:56:35,0.04,0.95,0.00,25.89,29.47,32.32,14.17,49.29,1011.24,2026.19,3113.09,2881.20,3209.12,599.93,587.02,18.54,0000 0000 0000 0000 000000
2016-05-23 11:01:36,0.04,0.95,0.00,25.90,29.47,32.33,14.27,49.37,1011.24,2026.21,3112.23,2880.96,3208.25,599.85,587.08,18.59,0000 0000 0000 0000 000000
2016-05-23 11:06:37,0.04,0.95,0.00,25.90,29.48,32.34,14.29,49.33,1011.24,2026.14,3111.43,2880.21,3207.47,599.78,586.93,18.64,0000 0000 0000 0000 000000
2016-05-23 11:11:38,0.02,0.96,0.00,25.89,29.50,32.35,14.30,49.42,1011.24,2026.08,3110.59,2879.95,3206.61,600.03,587.17,18.69,0000 0000 0000 0000 000000
2016-05-23 11:16:40,0.05,0.96,0.00,25.87,29.50,32.36,14.33,49.30,1011.26,2026.02,3109.65,2879.20,3205.70,599.95,587.02,18.74,0000 0000 0000 0000 000000
2016-05-23 11:21:41,0.01,0.96,0.00,25.86,29.50,32.37,14.27,49.27,1011.27,2026.00,3108.90,2878.99,3204.90,599.98,587.26,18.79,0000 0000 0000 0000 000000
2016-05-23 11:26:42,0.05,0.96,0.00,25.89,29.51,32.41,14.32,49.42,1011.28,2026.01,3108.04,2878.39,3204.00,599.97,587.15,18.84,0000 0000 0000 0000 000000
2016-05-23 11:31:43,0.03,0.96,0.00,25.95,29.52,32.48,14.25,49.06,1011.28,2026.00,3107.16,2877.99,3203.11,600.02,587.09,18.89,0000 0000 0000 0000 000000
2016-05-23 11:36:44,0.05,0.97,0.00,26.01,29.54,32.49,14.31,49.50,1011.41,2026.00,3106.47,2877.26,3202.32,600.03,587.01,18.94,0000 0000 0000 0000 000000
2016-05-23 11:41:46,0.03,0.97,0.00,26.09,29.56,32.51,14.28,49.33,1011.67,2026.00,3105.78,2876.82,3201.47,599.60,586.64,19.00,0000 0000 0000 0000 000000
2016-05-23 11:46:47,0.04,0.97,0.00,26.16,29.60,32.53,14.26,49.29,1011.73,2025.99,3104.94,2876.07,3200.63,599.87,586.78,19.05,0000 0000 0000 0000 000000
2016-05-23 11:51:48,0.05,0.97,0.00,26.23,29.64,32.60,14.34,49.25,1011.73,2025.93,3103.91,2875.42,3199.47,600.44,587.27,19.10,0000 0000 0000 0000 000000
2016-05-23 11:56:49,0.00,0.97,0.00,26.28,29.69,32.70,14.29,49.18,1011.73,2025.49,3102.93,2874.71,3198.55,600.48,587.11,19.15,0000 0000 0000 0000 000000
2016-05-23 12:01:51,0.02,0.97,0.00,26.32,29.75,32.78,14.27,49.33,1011.74,2025.05,3102.00,2873.95,3197.47,599.97,586.47,19.20,0000 0000 0000 0000 000000
2016-05-23 12:06:52,0.05,0.98,0.00,26.36,29.80,32.88,14.31,49.49,1011.75,2025.00,3101.04,2873.13,3196.49,600.54,586.97,19.25,0000 0000 0000 0000 000000
2016-05-23 12:11:53,0.06,0.98,0.00,26.40,29.86,32.96,14.37,49.31,1011.77,2024.98,3100.11,2872.37,3195.39,600.19,586.65,19.30,0000 0000 0000 0000 000000
2016-05-23 12:16:55,0.02,0.98,0.00,26.42,29.93,33.05,14.30,49.08,1011.81,2024.67,3099.12,2871.66,3194.22,599.74,586.27,19.35,0000 0000 0000 0000 000000
2016-05-23 12:21:56,-0.00,0.98,0.00,26.42,29.99,33.13,14.30,48.85,1012.14,2024.08,3098.08,2870.80,3193.08,599.97,586.63,19.40,0000 0000 0000 0000 000000
2016-05-23 12:26:58,0.04,0.98,0.00,26.41,30.06,33.22,14.32,48.67,1012.22,2024.00,3097.07,2870.03,3192.00,599.60,586.29,19.45,0000 0000 0000 0000 000000
2016-05-23 12:31:59,0.06,0.99,0.00,26.40,30.12,33.31,14.38,48.88,1012.22,2023.99,3096.18,2869.26,3190.94,600.15,586.79,19.50,0000 0000 0000 0000 000000
2016-05-23 12:37:01,0.03,0.99,0.00,26.39,30.18,33.41,14.29,48.12,1012.22,2023.82,3095.31,2868.64,3189.94,599.92,586.63,19.55,0000 0000 0000 0000 000000
2016-05-23 12:42:02,-0.03,0.99,0.00,26.36,30.24,33.48,14.24,48.38,1012.22,2023.12,3094.62,2867.90,3188.95,600.33,587.14,19.60,0000 0000 0000 0000 000000
2016-05-23 12:47:03,0.06,0.99,0.00,26.34,30.29,33.54,14.33,48.29,1012.22,2023.00,3093.54,2867.06,3187.86,599.80,586.69,19.65,0000 0000 0000 0000 000000
2016-05-23 12:52:05,0.04,0.99,0.00,26.30,30.34,33.57,14.38,48.89,1012.22,2022.99,3092.78,2866.41,3186.97,600.33,587.23,19.70,0000 0000 0000 0000 000000
2016-05-23 12:57:06,0.01,0.99,0.00,26.26,30.39,33.61,14.33,49.40,1012.22,2022.61,3091.76,2865.70,3185.92,599.93,586.70,19.75,0000 0000 0000 0000 000000